Location: Caltech
(34.1382°N, 118.1253°W)
Time: 00:32:15
(UTC-07:00)

Iridium 14 - Visible Passes

Search period start: 17 September 2014 00:00
Search period end: 27 September 2014 00:00
Orbit: 776 x 779 km, 86.4° (Epoch: 16 September)

Date Brightness Start Highest point End Pass type
(mag) Time Alt. Az. Time Alt. Az. Time Alt. Az.
17 Sep 8.1 20:53:03 10° SW 20:57:25 27° W 21:01:50 10° NNW visible
18 Sep 6.8 20:18:42 10° SSW 20:23:46 53° W 20:28:51 10° N visible
19 Sep 5.9 19:45:02 10° S 19:50:13 79° E 19:55:26 10° N visible
20 Sep 6.5 19:11:59 10° SSE 19:16:48 40° E 19:21:38 10° NNE visible
20 Sep 8.7 20:54:04 10° WSW 20:57:38 19° W 21:01:13 10° NW visible
21 Sep 7.7 20:19:10 10° SSW 20:23:54 35° W 20:28:39 10° NNW visible
22 Sep 6.4 19:45:07 10° S 19:50:17 70° W 19:55:29 10° N visible
23 Sep 6.1 19:11:41 10° SSE 19:16:47 60° E 19:21:54 10° N visible
23 Sep 9.2 20:55:50 10° W 20:57:53 12° WNW 20:59:56 10° NW visible
24 Sep 9.4 05:47:42 10° NE 05:50:09 13° ENE 05:52:35 10° ESE visible
24 Sep 8.4 20:19:55 10° SW 20:24:04 24° W 20:28:14 10° NNW visible
25 Sep 7.2 19:45:25 10° SSW 19:50:23 46° W 19:55:23 10° NNW visible
26 Sep 6.1 19:11:37 10° S 19:16:49 90° E 19:22:02 10° N visible
